Location: Boca do Mato
(22.9085°S, 43.2930°W)
Time: 21:56:00
(UTC+00:00)

Cosmos 1536 Rocket - Pass Details

Date: 14 July 2020
Orbit: 604 x 633 km, 82.5° (Epoch: 10 August)

Event Time Altitude Azimuth Distance (km) Brightness Sun altitude
Rises 08:07:22 0° 350° (N) 2,850 7.0 -19.6°
Reaches altitude 10° 08:09:35 10° 348° (NNW) 1,951 6.2 -19.1°
Maximum altitude 08:13:53 68° 265° (W) 657 3.4 -18.1°
Drops below altitude 10° 08:18:13 10° 181° (S) 1,970 6.0 -17.2°
Sets 08:20:27 0° 178° (S) 2,881 6.8 -16.7°
